Simultaneous Nadir Overpasses (SNOs) Predictions

Prediction of SNOs between NOAA-19 and NPP Satellite Orbit:

Table of predicted SNOs for the next 14.0 days since TLE Epoch: 10/22/2016
Index Date (NOAA-19) Time (NOAA-19) Lat,Lon (NOAA-19) SZA (NOAA-19 ) Date (NPP) Time (NPP) Lat,Lon (NPP) SZA (NPP ) Distance(km) Time Diff (sec)
1 11/01/2016 15:16:28 80.95,-101.37 98.54 11/01/2016 15:17:35 80.96,-101.23 98.49 2.52 67
2 11/01/2016 16:07:23 -80.95, 66.23 81.49 11/01/2016 16:08:20 -80.96, 66.09 81.50 2.51 57
3 11/01/2016 16:58:29 80.95,-126.55 98.52 11/01/2016 16:59:05 80.96,-126.64 98.52 1.74 36
4 11/01/2016 17:49:25 -80.95, 40.67 81.47 11/01/2016 17:49:50 -80.96, 40.68 81.47 0.55 25
5 11/01/2016 18:40:31 80.95,-152.10 98.55 11/01/2016 18:40:35 80.96,-152.05 98.55 1.15 4
6 11/01/2016</
